GW3340 Weather Reports


Display with metric or nautical units.
time (UTC)temp
F
wind
direction
speed
MPH
gust
MPH
rain 1hr
in
rain 24hr
in
rain mn
in
humidity
%
barometer
mb
20240529052159 58 217 0.0 0.0 0.00 0.00 0.00 93 1022.1
20240529051657 58 217 0.0 0.0 0.00 0.00 0.00 93 1022.0
20240529051155 58 217 0.0 1.0 0.00 0.00 0.00 93 1022.1
20240529050655 58 180 0.0 0.0 0.00 0.00 0.00 92 1021.9
20240529050154 58 180 0.0 0.0 0.00 0.00 0.00 92 1022.1
20240529045652 58 180 0.0 0.0 0.00 0.00 0.00 92 1021.9
20240529045150 59 180 0.0 0.0 0.00 0.00 0.00 91 1022.0
20240529044649 59 180 0.0 1.0 0.00 0.00 0.00 91 1021.9
20240529044147 59 195 0.0 1.0 0.00 0.00 0.00 91 1021.9
20240529043645 59 212 0.0 0.0 0.00 0.00 0.00 90 1021.9
20240529043145 59 212 0.0 0.0 0.00 0.00 0.00 90 1022.0
20240529042644 59 269 0.0 0.0 0.00 0.00 0.00 89 1021.9
20240529042143 60 269 0.0 0.0 0.00 0.00 0.00 89 1021.9
20240529041642 60 269 0.0 1.0 0.00 0.00 0.00 88 1021.8
20240529041141 60 297 0.0 1.0 0.00 0.00 0.00 88 1021.7
20240529040638 60 269 0.0 2.0 0.00 0.00 0.00 87 1021.7
20240529040137 60 322 0.0 0.0 0.00 0.00 0.00 87 1021.9
20240529035637 60 113 0.0 1.0 0.00 0.00 0.00 86 1021.8
20240529035135 61 293 0.0 0.0 0.00 0.00 0.00 86 1021.9
20240529035025 61 269 0.0 1.0 0.00 0.00 0.00 85 1021.7
20240529033022 62 235 0.0 0.0 0.00 0.00 0.00 81 1021.8
20240529031221 62 212 0.0 0.0 0.00 0.00 0.00 75 1021.7
20240529024322 64 256 0.0 1.0 0.00 0.00 0.00 73 1021.7
20240529021713 65 230 0.0 0.0 0.00 0.00 0.00 75 1021.9
20240529015640 66 230 0.0 0.0 0.00 0.00 0.00 65 1021.5
20240529012847 69 230 0.0 0.0 0.00 0.00 0.00 60 1021.7
20240529011454 71 187 0.0 2.0 0.00 0.00 0.00 57 1021.5
20240529005816 72 235 0.0 6.0 0.00 0.00 0.00 51 1021.3
20240529004222 74 263 2.0 4.0 0.00 0.00 0.00 47 1021.1
20240529002744 76 245 2.0 4.0 0.00 0.00 0.00 45 1020.7
20240529001336 76 209 4.0 7.0 0.00 0.00 0.00 44 1020.7
20240529000109 77 284 2.0 7.0 0.00 0.00 0.00 44 1020.5
20240528234008 79 266 2.0 5.0 0.00 0.00 0.00 46 1020.5
20240528232647 79 326 4.0 7.0 0.00 0.00 0.00 46 1020.5
20240528232213 81 346 1.0 7.0 0.00 0.00 0.00 44 1020.4
20240528231005 82 284 2.0 5.0 0.00 0.00 0.00 44 1020.7
20240528225632 80 212 2.0 6.0 0.00 0.00 0.00 46 1020.6
20240528224221 82 160 4.0 9.0 0.00 0.00 0.00 43 1020.3
20240528223514 82 293 4.0 9.0 0.00 0.00 0.00 47 1020.5
20240528223013 81 51 1.0 5.0 0.00 0.00 0.00 45 1020.3
20240528222513 81 311 2.0 5.0 0.00 0.00 0.00 45 1020.4
20240528222011 82 207 1.0 7.0 0.00 0.00 0.00 44 1020.4
20240528221509 81 221 2.0 9.0 0.00 0.00 0.00 44 1020.3
20240528221008 82 298 2.0 7.0 0.00 0.00 0.00 45 1020.2
20240528220506 82 245 2.0 4.0 0.00 0.00 0.00 46 1020.6
20240528220006 83 349 4.0 6.0 0.00 0.00 0.00 42 1020.5
20240528215506 82 272 3.0 5.0 0.00 0.00 0.00 44 1020.5
20240528215005 82 267 1.0 6.0 0.00 0.00 0.00 44 1020.4
20240528214504 82 258 2.0 10.0 0.00 0.00 0.00 46 1020.4
20240528214002 83 214 3.0 5.0 0.00 0.00 0.00 42 1020.5
20240528213501 82 272 2.0 3.0 0.00 0.00 0.00 48 1020.4
20240528213000 83 246 4.0 6.0 0.00 0.00 0.00 43 1020.5
20240528212459 84 251 3.0 6.0 0.00 0.00 0.00 44 1020.4
20240528211957 83 325 3.0 7.0 0.00 0.00 0.00 43 1020.3
20240528211455 82 312 2.0 11.0 0.00 0.00 0.00 42 1020.2
20240528210954 81 356 0.0 9.0 0.00 0.00 0.00 47 1020.1
20240528210454 81 329 1.0 6.0 0.00 0.00 0.00 47 1020.0
20240528205953 83 187 1.0 10.0 0.00 0.00 0.00 41 1020.2
20240528205452 83 209 3.0 7.0 0.00 0.00 0.00 45 1020.2
20240528204951 82 222 2.0 6.0 0.00 0.00 0.00 47 1020.3
20240528204450 83 327 5.0 9.0 0.00 0.00 0.00 47 1020.3
20240528203950 83 199 3.0 5.0 0.00 0.00 0.00 43 1020.1
20240528203449 83 200 4.0 8.0 0.00 0.00 0.00 42 1020.4
20240528202948 83 283 3.0 9.0 0.00 0.00 0.00 40 1020.3
20240528202448 84 282 3.0 10.0 0.00 0.00 0.00 39 1020.3
20240528201947 83 242 2.0 11.0 0.00 0.00 0.00 41 1020.6
20240528201446 83 296 3.0 9.0 0.00 0.00 0.00 43 1020.3
20240528200945 85 331 3.0 8.0 0.00 0.00 0.00 40 1020.5
20240528200444 85 292 3.0 6.0 0.00 0.00 0.00 40 1020.6
20240528195943 84 6 4.0 11.0 0.00 0.00 0.00 38 1020.6
20240528195443 84 199 2.0 7.0 0.00 0.00 0.00 41 1020.7
20240528194942 83 280 1.0 3.0 0.00 0.00 0.00 41 1020.6
20240528194441 83 67 3.0 5.0 0.00 0.00 0.00 41 1020.8
20240528193939 83 202 2.0 10.0 0.00 0.00 0.00 38 1021.0
20240528193438 84 300 7.0 9.0 0.00 0.00 0.00 44 1020.9
20240528192936 83 307 4.0 9.0 0.00 0.00 0.00 44 1021.0
20240528192436 84 298 4.0 10.0 0.00 0.00 0.00 41 1021.0
20240528191935 85 160 5.0 7.0 0.00 0.00 0.00 37 1021.1
20240528191434 84 336 6.0 9.0 0.00 0.00 0.00 38 1020.9
20240528190932 84 223 2.0 9.0 0.00 0.00 0.00 41 1021.0
20240528190432 84 238 2.0 6.0 0.00 0.00 0.00 40 1021.0
20240528185932 83 273 3.0 9.0 0.00 0.00 0.00 41 1021.2
20240528185430 83 310 13.0 14.0 0.00 0.00 0.00 37 1021.1
20240528184929 85 359 4.0 5.0 0.00 0.00 0.00 38 1020.9
20240528184428 83 266 2.0 6.0 0.00 0.00 0.00 44 1021.0
20240528183927 84 283 3.0 8.0 0.00 0.00 0.00 37 1021.0
20240528183426 83 255 3.0 7.0 0.00 0.00 0.00 39 1021.3
20240528182926 84 245 4.0 6.0 0.00 0.00 0.00 36 1021.2
20240528182424 83 189 4.0 8.0 0.00 0.00 0.00 38 1021.1
20240528181922 84 237 7.0 10.0 0.00 0.00 0.00 35 1021.2
20240528181420 84 334 5.0 8.0 0.00 0.00 0.00 39 1021.4
20240528180919 83 355 4.0 5.0 0.00 0.00 0.00 38 1021.2
20240528180416 83 80 1.0 12.0 0.00 0.00 0.00 39 1021.3
20240528175914 84 152 2.0 6.0 0.00 0.00 0.00 37 1021.2
20240528175413 84 346 4.0 5.0 0.00 0.00 0.00 36 1021.4
20240528174911 84 285 2.0 7.0 0.00 0.00 0.00 44 1021.4
20240528174410 84 336 2.0 7.0 0.00 0.00 0.00 32 1021.2
20240528173907 83 274 5.0 10.0 0.00 0.00 0.00 43 1021.3
20240528173407 83 232 3.0 10.0 0.00 0.00 0.00 33 1021.3
20240528172906 83 242 2.0 9.0 0.00 0.00 0.00 46 1021.2
20240528172404 84 240 4.0 11.0 0.00 0.00 0.00 34 1021.3
20240528171902 84 336 3.0 6.0 0.00 0.00 0.00 35 1021.2
20240528171401 83 275 1.0 6.0 0.00 0.00 0.00 39 1020.9
20240528170901 83 22 10.0 16.0 0.00 0.00 0.00 36 1021.1
20240528170401 83 296 2.0 9.0 0.00 0.00 0.00 39 1021.0
20240528165859 83 320 6.0 9.0 0.00 0.00 0.00 35 1021.2
20240528165357 83 237 4.0 6.0 0.00 0.00 0.00 35 1021.3
20240528164856 83 12 4.0 8.0 0.00 0.00 0.00 36 1021.2
20240528164354 84 263 2.0 3.0 0.00 0.00 0.00 39 1021.1
20240528163853 83 11 2.0 6.0 0.00 0.00 0.00 34 1021.5
20240528163352 83 322 4.0 8.0 0.00 0.00 0.00 34 1021.3
20240528162850 83 204 2.0 6.0 0.00 0.00 0.00 40 1021.5
20240528162349 82 353 2.0 10.0 0.00 0.00 0.00 42 1021.5
20240528161848 82 334 1.0 7.0 0.00 0.00 0.00 35 1021.4
20240528161346 82 217 2.0 9.0 0.00 0.00 0.00 37 1021.5
20240528160845 82 293 4.0 6.0 0.00 0.00 0.00 42 1021.4
20240528160343 82 233 5.0 11.0 0.00 0.00 0.00 35 1021.4
20240528155842 82 224 0.0 4.0 0.00 0.00 0.00 39 1021.4
20240528155341 83 243 2.0 8.0 0.00 0.00 0.00 41 1021.3
20240528154840 84 333 2.0 4.0 0.00 0.00 0.00 37 1021.3
20240528154339 83 319 0.0 3.0 0.00 0.00 0.00 43 1021.5
20240528153839 83 285 1.0 4.0 0.00 0.00 0.00 40 1021.5
20240528153338 82 334 2.0 3.0 0.00 0.00 0.00 42 1021.5
20240528152837 81 277 3.0 7.0 0.00 0.00 0.00 40 1021.3
20240528152336 81 357 2.0 7.0 0.00 0.00 0.00 43 1021.3
20240528151834 81 228 3.0 6.0 0.00 0.00 0.00 47 1021.2
20240528151333 81 235 2.0 6.0 0.00 0.00 0.00 44 1020.9
20240528150832 81 358 2.0 4.0 0.00 0.00 0.00 43 1021.0
20240528150332 81 148 1.0 4.0 0.00 0.00 0.00 41 1021.0
20240528145829 82 5 0.0 3.0 0.00 0.00 0.00 47 1021.0
20240528145328 82 87 1.0 3.0 0.00 0.00 0.00 43 1020.7
20240528144827 81 0 1.0 5.0 0.00 0.00 0.00 46 1020.8
20240528144326 80 184 0.0 4.0 0.00 0.00 0.00 46 1020.6
20240528143826 79 165 0.0 6.0 0.00 0.00 0.00 46 1020.7
20240528143326 80 262 3.0 11.0 0.00 0.00 0.00 48 1020.8
20240528142825 80 176 2.0 4.0 0.00 0.00 0.00 55 1020.8
20240528142323 80 339 3.0 3.0 0.00 0.00 0.00 57 1020.8
20240528141821 79 185 3.0 5.0 0.00 0.00 0.00 55 1020.8
20240528141319 79 222 2.0 3.0 0.00 0.00 0.00 52 1020.5
20240528140818 78 325 2.0 4.0 0.00 0.00 0.00 53 1020.6
20240528140317 79 305 2.0 4.0 0.00 0.00 0.00 60 1020.7
20240528135816 79 333 0.0 6.0 0.00 0.00 0.00 59 1020.6
20240528135315 77 123 0.0 4.0 0.00 0.00 0.00 59 1020.7
20240528134814 78 328 3.0 4.0 0.00 0.00 0.00 58 1020.5
20240528134313 77 255 2.0 4.0 0.00 0.00 0.00 66 1020.7
20240528133812 77 311 2.0 3.0 0.00 0.00 0.00 62 1020.8
20240528133311 77 268 0.0 6.0 0.00 0.00 0.00 64 1020.9
20240528132809 76 304 0.0 3.0 0.00 0.00 0.00 65 1021.1
20240528132308 76 332 2.0 4.0 0.00 0.00 0.00 67 1020.9
20240528131807 76 217 0.0 4.0 0.00 0.00 0.00 70 1021.2
20240528131306 76 216 0.0 2.0 0.00 0.00 0.00 72 1021.1
20240528130804 76 338 2.0 4.0 0.00 0.00 0.00 69 1021.2
20240528130303 76 173 0.0 0.0 0.00 0.00 0.00 72 1021.0
20240528125803 77 112 0.0 1.0 0.00 0.00 0.00 70 1021.0
20240528125305 76 59 1.0 2.0 0.00 0.00 0.00 74 1021.1
20240528124800 74 25 0.0 0.0 0.00 0.00 0.00 81 1020.8
20240528124258 73 25 0.0 1.0 0.00 0.00 0.00 79 1020.9
20240528123758 72 351 0.0 1.0 0.00 0.00 0.00 84 1021.0
20240528123257 69 30 0.0 1.0 0.00 0.00 0.00 89 1021.0
20240528122757 68 37 0.0 0.0 0.00 0.00 0.00 96 1021.2
20240528122255 68 104 0.0 0.0 0.00 0.00 0.00 97 1021.0
20240528121753 66 104 0.0 1.0 0.00 0.00 0.00 97 1021.1
20240528121253 64 27 0.0 2.0 0.00 0.00 0.00 97 1021.1
20240528120751 64 6 0.0 1.0 0.00 0.00 0.00 97 1020.9
20240528120251 63 24 1.0 2.0 0.00 0.00 0.00 97 1021.0
20240528115751 62 75 0.0 2.0 0.00 0.00 0.00 97 1020.9
20240528115249 62 29 1.0 2.0 0.00 0.00 0.00 97 1021.0
20240528114748 63 44 0.0 1.0 0.00 0.00 0.00 97 1021.2
20240528114247 64 69 0.0 1.0 0.00 0.00 0.00 97 1021.3
20240528113745 62 117 0.0 0.0 0.00 0.00 0.00 97 1021.5
20240528113243 61 117 0.0 0.0 0.00 0.00 0.00 97 1021.4
20240528112742 61 117 0.0 0.0 0.00 0.00 0.00 97 1021.2
20240528112241 61 117 0.0 1.0 0.00 0.00 0.00 97 1021.3
20240528111740 60 29 0.0 1.0 0.00 0.00 0.00 97 1021.1
20240528111240 60 147 0.0 1.0 0.00 0.00 0.00 97 1021.1
20240528110740 60 129 0.0 2.0 0.00 0.00 0.00 97 1021.2
20240528110239 60 284 0.0 1.0 0.00 0.00 0.00 97 1021.0
20240528105737 59 242 0.0 1.0 0.00 0.00 0.00 97 1021.0
20240528105236 59 75 0.0 1.0 0.00 0.00 0.00 97 1020.9
20240528104736 59 56 0.0 2.0 0.00 0.00 0.00 97 1020.8
20240528104235 59 242 0.0 1.0 0.00 0.00 0.00 97 1020.8
20240528103735 59 129 0.0 1.0 0.00 0.00 0.00 97 1020.7
20240528103234 59 150 0.0 1.0 0.00 0.00 0.00 97 1020.6
20240528102733 59 42 0.0 1.0 0.00 0.00 0.00 97 1020.7
20240528102232 59 230 0.0 0.0 0.00 0.00 0.00 97 1020.4
20240528101731 59 104 0.0 1.0 0.00 0.00 0.00 97 1020.6
20240528101229 59 218 0.0 1.0 0.00 0.00 0.00 97 1020.7
20240528100728 59 129 0.0 1.0 0.00 0.00 0.00 97 1020.5
20240528100227 58 242 0.0 1.0 0.00 0.00 0.00 97 1020.3
20240528095726 58 142 0.0 1.0 0.00 0.00 0.00 97 1020.5
20240528095224 58 37 0.0 1.0 0.00 0.00 0.00 97 1020.0
20240528094723 58 130 0.0 0.0 0.00 0.00 0.00 97 1020.3
20240528094222 59 217 0.0 1.0 0.00 0.00 0.00 97 1020.2
20240528093720 58 104 0.0 1.0 0.00 0.00 0.00 97 1020.4
20240528093219 59 60 0.0 1.0 0.00 0.00 0.00 97 1020.1
20240528092718 59 126 0.0 1.0 0.00 0.00 0.00 97 1020.3
20240528092218 59 195 0.0 1.0 0.00 0.00 0.00 97 1020.2
20240528091717 58 142 0.0 1.0 0.00 0.00 0.00 97 1020.1
20240528091215 58 205 0.0 0.0 0.00 0.00 0.00 97 1020.2
20240528090715 59 205 0.0 0.0 0.00 0.00 0.00 97 1020.2
20240528090214 58 235 0.0 0.0 0.00 0.00 0.00 97 1020.2
20240528085712 59 235 0.0 0.0 0.00 0.00 0.00 97 1020.0
20240528085210 59 235 0.0 2.0 0.00 0.00 0.00 97 1019.7
20240528084709 59 224 0.0 1.0 0.00 0.00 0.00 97 1019.7
20240528084208 59 205 0.0 1.0 0.00 0.00 0.00 97 1019.6
20240528083706 59 235 0.0 0.0 0.00 0.00 0.00 97 1019.6
20240528083205 59 235 0.0 1.0 0.00 0.00 0.00 97 1019.6
20240528082704 59 217 0.0 0.0 0.00 0.00 0.00 97 1019.6
20240528082201 59 217 0.0 0.0 0.00 0.00 0.00 97 1019.5
20240528081659 59 217 0.0 0.0 0.00 0.00 0.00 97 1019.7
20240528081157 60 217 0.0 0.0 0.00 0.00 0.00 97 1019.6
20240528080655 60 217 0.0 0.0 0.00 0.00 0.00 97 1019.4
20240528080154 60 217 0.0 0.0 0.00 0.00 0.00 97 1019.4
20240528075654 60 217 0.0 0.0 0.00 0.00 0.00 97 1019.5
20240528075152 60 217 0.0 0.0 0.00 0.00 0.00 97 1019.5
20240528074652 60 217 0.0 0.0 0.00 0.00 0.00 97 1019.5
20240528074150 60 217 0.0 0.0 0.00 0.00 0.00 97 1019.4
20240528073647 60 217 0.0 0.0 0.00 0.00 0.00 97 1019.3
20240528073145 60 217 0.0 0.0 0.00 0.00 0.00 97 1019.2
20240528072644 60 217 0.0 1.0 0.00 0.00 0.00 97 1019.5
20240528072142 60 256 0.0 0.0 0.00 0.00 0.00 97 1019.4
20240528071641 60 256 0.0 0.0 0.00 0.00 0.00 97 1019.5
20240528071140 60 256 0.0 0.0 0.00 0.00 0.00 97 1019.6
20240528070641 61 256 0.0 0.0 0.00 0.00 0.00 97 1019.4
20240528070140 61 256 0.0 1.0 0.00 0.00 0.00 97 1019.7
20240528065638 61 154 0.0 0.0 0.00 0.00 0.00 97 1019.4
20240528065137 60 154 0.0 0.0 0.00 0.00 0.00 97 1019.8
20240528064636 61 154 0.0 0.0 0.00 0.00 0.00 97 1019.6
20240528064136 61 154 0.0 0.0 0.00 0.00 0.00 97 1019.5
20240528063635 61 154 0.0 0.0 0.00 0.00 0.00 97 1019.7
20240528063135 61 154 0.0 0.0 0.00 0.00 0.00 97 1019.4
20240528062634 61 154 0.0 0.0 0.00 0.00 0.00 97 1019.5
20240528062133 61 154 0.0 0.0 0.00 0.00 0.00 97 1019.8
20240528061632 62 154 0.0 0.0 0.00 0.00 0.00 97 1019.8
20240528061130 62 154 0.0 0.0 0.00 0.00 0.00 97 1019.8
20240528060630 62 142 0.0 0.0 0.00 0.00 0.00 97 1019.8
20240528060129 62 142 0.0 0.0 0.00 0.00 0.00 97 1019.8
20240528055627 62 142 0.0 0.0 0.00 0.00 0.00 97 1019.9
20240528055125 62 50 0.0 0.0 0.00 0.00 0.00 97 1019.6
20240528054623 62 50 0.0 0.0 0.00 0.00 0.00 97 1019.9
20240528054122 62 50 0.0 0.0 0.00 0.00 0.00 97 1019.7
20240528053618 63 50 0.0 0.0 0.00 0.00 0.00 97 1020.0
20240528053117 63 50 0.0 0.0 0.00 0.00 0.00 97 1019.7
20240528052616 63 255 0.0 0.0 0.00 0.00 0.00 97 1019.8